Simultaneous Nadir Overpasses (SNOs) Predictions

Prediction of SNOs between AQUA and GOES-15 Satellite Orbit:

Table of predicted SNOs for the next 14.0 days since TLE Epoch: 2/9/2018
Index Date Time (AQUA) AQUA Lat,Lon GOES-15 Lat,Lon Distance(km) Time Diff (sec)
1 02/11/2018 10:26:17 -0.58,-132.64 -0.01,-135.38 311.35 80
2 02/11/2018 22:47:42 -0.52,-137.84 0.00,-135.38 279.96 80
3 02/13/2018 22:35:32 0.13,-134.88 -0.00,-135.40 58.89 80
4 02/15/2018 22:23:21 0.72,-131.92 -0.00,-135.41 396.93 80
5 02/16/2018 10:44:37 0.33,-137.08 0.01,-135.43 187.06 80
6 02/18/2018 10:32:26 -0.26,-134.12 0.00,-135.44 150.38 80
7 02/18/2018 22:53:50 -0.83,-139.31 -0.00,-135.43 441.50 80
8 02/20/2018 10:20:16 -0.92,-131.17 -0.00,-135.45 487.18 80
9 02/20/2018 22:41:40 -0.22,-136.35 -0.00,-135.43 104.89 80
10 02/22/2018 22:29:30 0.45,-133.40 -0.00,-135.43 231.06 80
11 02/23/2018 10:50:44 0.68,-138.55 0.00,-135.44 353.61 80




NCC Satellite Simultaneous Nadir Overpasses (SNOs) Prediction Service
